821  
ASUS44 KHUN 131510  
RWRHUN  
 
WEATHER ROUNDUP FOR THE TENNESSEE VALLEY  
NATIONAL WEATHER SERVICE HUNTSVILLE AL  
1000 AM CDT SAT APR 13 2024  
 
ALZ001>004-131600-  
NORTHWEST ALABAMA  
 
CITY SKY/WX TMP DP RH WIND PRES REMARKS
 
BANKHEAD NF N/A 67 38 34 S1 N/A  
SHOALS AIRPORT SUNNY 62 46 55 CALM 30.28S  

 
 
ALZ005>007-016-131600-  
NORTH CENTRAL ALABAMA  
 
CITY SKY/WX TMP DP RH WIND PRES REMARKS
 
CULLMAN AG STN N/A 57 N/A N/A CALM N/A  
DECATUR AP SUNNY 63 44 50 SW3 30.30R  
HUNTSVILLE AP SUNNY 63 43 48 CALM 30.29R  
HUN NWS/UAH N/A 62 37 39 CALM N/A  
MERIDIANVILLE SUNNY 62 36 38 CALM 30.30R  
VINEMONT AP SUNNY 64 37 36 N3 30.30S  

 
 
ALZ008>010-131600-  
NORTHEAST ALABAMA  
 
CITY SKY/WX TMP DP RH WIND PRES REMARKS
 
ALBERTVILLE SUNNY 63 37 39 NW3 30.29R  
FORT PAYNE SUNNY 61 40 46 CALM 30.28R  

 
 
TNZ076-096-097-131600-  
SOUTHEASTERN MIDDLE TENNESSEE  
 
CITY SKY/WX TMP DP RH WIND PRES REMARKS
 
TULLAHOMA SUNNY 64 32 29 N7 30.26R  
WINCHESTER SUNNY 61 39 44 VRB5 30.28R  

 
   
..SURROUNDING SITES
 
 
 
CITY SKY/WX TMP DP RH WIND PRES REMARKS
 
ATLANTA MOSUNNY 66 36 32 NW9G20 30.26R  
ANNISTON SUNNY 63 42 46 SW5 30.29S  
BIRMINGHAM MOSUNNY 65 41 41 NW6 30.32S  
CHATTANOOGA MOSUNNY 65 36 34 CALM 30.26S  
CORINTH SUNNY 64 45 48 CALM 30.28S  
DALTON SUNNY 64 36 34 N9G20 30.25R  
GADSDEN SUNNY 64 41 42 CALM 30.30R  
GOLDEN TRNGL SUNNY 67 50 54 N3 30.31R  
HALEYVILLE SUNNY 65 41 41 CALM 30.32R  
JACKSON TN SUNNY 69 42 37 VRB3 30.27S  
LAWRENCEBURG SUNNY 64 34 32 CALM 30.28R  
LEWISBURG SUNNY 66 37 34 VRB6 30.27S  
MEMPHIS SUNNY 68 48 48 S6 30.26S  
MURFREESBORO SUNNY 64 37 36 CALM 30.25R  
NASHVILLE SUNNY 66 35 31 VRB3 30.27R  
OXFORD MS SUNNY 68 45 42 CALM 30.30R  
ROME SUNNY 66 34 30 NW10G17 30.26R  
SAVANNAH SUNNY 64 46 52 CALM 30.26S  
SELMER SUNNY 68 32 26 SE6 30.27R  
TUPELO SUNNY 68 49 50 CALM 30.29S  
TUSCALOOSA SUNNY 64 47 53 CALM 30.31R  

 
 
 
 
CLICK HERE TO GO TO PREVIOUS BULLETINS.

The Nexlab AL Page
The Nexlab TN Page Main Text Page